DW4078 Weather Reports


time (UTC)temp
C
wind
direction
speed
KPH
gust
KPH
rain 1hr
cm
rain 24hr
cm
rain mn
cm
humidity
%
barometer
mb
20260506103003 6 92 1.6 3.2 0.05 3.68 0.97 98 1008.6
20260506102802 6 79 1.6 3.2 0.05 3.68 0.97 98 1008.3
20260506102703 6 77 0.0 3.2 0.05 3.68 0.97 98 1008.3
20260506102503 6 86 0.0 3.2 0.08 3.68 0.97 98 1008.0
20260506102402 6 58 0.0 3.2 0.08 3.68 0.97 98 1008.0
20260506102103 6 76 0.0 3.2 0.08 3.68 0.97 98 1007.8
20260506102002 6 84 0.0 3.2 0.10 3.68 0.97 98 1007.6
20260506101403 6 88 0.0 3.2 0.10 3.68 0.97 98 1007.7
20260506101003 6 78 0.0 4.8 0.13 3.68 0.97 98 1007.4
20260506100903 6 82 1.6 4.8 0.13 3.68 0.97 98 1007.3
20260506100603 6 83 1.6 4.8 0.13 3.68 0.97 98 1007.5
20260506100403 6 74 1.6 6.4 0.13 3.68 0.97 98 1007.5
20260506100303 6 80 1.6 6.4 0.13 3.68 0.97 98 1007.8
20260506095902 6 51 3.2 9.7 0.15 3.68 0.97 98 1007.9
20260506095403 6 22 4.8 12.9 0.15 3.68 0.97 98 1008.3
20260506095305 6 17 4.8 12.9 0.15 3.68 0.97 98 1008.5
20260506095024 6 9 4.8 12.9 0.15 3.68 0.97 98 1008.3
20260506094602 7 346 3.2 14.5 0.15 3.68 0.97 98 1008.3
20260506094303 7 323 1.6 14.5 0.15 3.68 0.97 98 1008.5
20260506093703 7 92 0.0 3.2 0.13 3.66 0.94 98 1008.7
20260506093624 7 107 0.0 3.2 0.13 3.66 0.94 98 1008.5
20260506093503 7 107 0.0 3.2 0.13 3.66 0.94 98 1008.8
20260506093303 7 107 0.0 3.2 0.13 3.66 0.94 98 1008.6
20260506093224 7 106 0.0 3.2 0.13 3.66 0.94 98 1008.7
20260506093123 7 103 0.0 3.2 0.10 3.63 0.91 98 1008.7
20260506093003 7 103 0.0 3.2 0.10 3.63 0.91 98 1008.8
20260506092503 7 87 0.0 1.6 0.10 3.61 0.89 98 1008.7
20260506092402 7 87 0.0 1.6 0.10 3.61 0.89 98 1008.7
20260506092202 7 0 0.0 0.0 0.13 3.61 0.89 98 1008.7
20260506092103 7 0 0.0 0.0 0.13 3.61 0.89 98 1008.5
20260506091803 7 0 0.0 0.0 0.10 3.58 0.86 98 1008.3
20260506091603 7 0 0.0 0.0 0.13 3.58 0.86 98 1008.2
20260506091503 7 0 0.0 0.0 0.13 3.58 0.86 98 1008.2
20260506091424 7 91 0.0 1.6 0.13 3.58 0.86 98 1008.5
20260506091105 7 87 0.0 1.6 0.13 3.56 0.84 98 1008.3
20260506090505 7 87 0.0 1.6 0.15 3.56 0.84 98 1008.5
20260506090303 7 117 0.0 1.6 0.15 3.56 0.84 98 1008.2
20260506090003 7 107 0.0 1.6 0.13 3.53 0.81 98 1007.9
20260506085903 7 101 0.0 1.6 0.13 3.53 0.81 98 1008.1
20260506085703 7 101 0.0 1.6 0.15 3.53 0.81 98 1008.0
20260506085603 7 101 0.0 1.6 0.15 3.53 0.81 98 1008.2
20260506085524 7 101 0.0 1.6 0.15 3.53 0.81 98 1008.2
20260506085403 7 100 0.0 1.6 0.15 3.53 0.81 98 1008.0
20260506085305 7 94 0.0 1.6 0.15 3.53 0.81 98 1008.1
20260506085203 7 90 0.0 1.6 0.15 3.53 0.81 98 1007.7
20260506085103 7 90 0.0 1.6 0.15 3.53 0.81 98 1007.6
20260506084803 7 72 1.6 4.8 0.18 3.53 0.81 98 1007.9
20260506084603 7 57 1.6 6.4 0.18 3.53 0.81 98 1007.8
20260506084403 7 56 1.6 6.4 0.18 3.53 0.81 98 1007.8
20260506084203 7 54 1.6 6.4 0.18 3.53 0.81 98 1007.8
20260506083902 7 50 1.6 6.4 0.20 3.53 0.81 98 1008.0
20260506083824 7 50 1.6 6.4 0.20 3.53 0.81 98 1007.6
20260506083603 7 77 0.0 3.2 0.20 3.53 0.81 98 1007.9
20260506083302 7 85 0.0 4.8 0.20 3.53 0.81 98 1008.1
20260506083203 7 85 0.0 4.8 0.20 3.53 0.81 98 1008.2
20260506083102 7 86 0.0 4.8 0.20 3.53 0.81 98 1008.3
20260506082802 7 67 1.6 4.8 0.20 3.51 0.79 98 1008.5
20260506082703 7 65 1.6 4.8 0.20 3.51 0.79 98 1008.1
20260506082603 7 65 1.6 4.8 0.20 3.51 0.79 98 1008.1
20260506082403 7 60 1.6 4.8 0.20 3.51 0.79 98 1008.2
20260506082103 7 58 1.6 4.8 0.20 3.48 0.76 98 1008.5
20260506081503 7 87 0.0 3.2 0.18 3.45 0.74 98 1008.3
20260506081303 7 86 0.0 3.2 0.20 3.45 0.74 98 1008.6
20260506081102 7 74 0.0 3.2 0.18 3.43 0.71 98 1008.7
20260506081002 7 69 0.0 3.2 0.18 3.43 0.71 98 1008.6
20260506080903 7 67 0.0 3.2 0.18 3.43 0.71 98 1008.6
20260506080803 7 62 0.0 3.2 0.18 3.43 0.71 98 1008.5
20260506080702 7 56 0.0 3.2 0.18 3.43 0.71 98 1008.5
20260506080524 7 46 0.0 3.2 0.15 3.40 0.69 98 1008.5
20260506073524 7 80 1.6 4.8 0.13 3.33 0.61 98 1008.2
20260506073403 7 79 1.6 4.8 0.13 3.33 0.61 98 1008.2
20260506073324 7 79 1.6 4.8 0.13 3.33 0.61 98 1008.2
20260506073203 7 76 1.6 4.8 0.13 3.33 0.61 98 1008.1
20260506073103 7 78 1.6 4.8 0.13 3.33 0.61 98 1008.0
20260506072803 7 78 1.6 4.8 0.10 3.30 0.58 98 1008.0
20260506072703 7 77 1.6 4.8 0.10 3.30 0.58 98 1008.0
20260506072603 7 80 1.6 4.8 0.10 3.30 0.58 97 1008.0
20260506072503 7 85 1.6 3.2 0.10 3.30 0.58 98 1007.8
20260506072103 7 87 0.0 1.6 0.08 3.28 0.56 97 1008.1
20260506071903 7 90 0.0 3.2 0.10 3.28 0.56 98 1007.7
20260506071703 7 94 1.6 3.2 0.10 3.28 0.56 98 1008.0
20260506071603 7 93 1.6 3.2 0.10 3.28 0.56 98 1008.1
20260506071503 7 93 1.6 3.2 0.10 3.28 0.56 97 1008.0
20260506071203 7 93 1.6 3.2 0.10 3.25 0.53 97 1007.8
20260506071124 7 94 1.6 3.2 0.10 3.25 0.53 97 1007.9
20260506070724 7 93 0.0 1.6 0.13 3.25 0.53 97 1008.0
20260506070503 7 78 0.0 3.2 0.13 3.25 0.53 97 1008.1
20260506070403 7 74 0.0 3.2 0.15 3.25 0.53 97 1007.9
20260506062503 7 84 0.0 3.2 0.28 3.20 0.48 97 1008.0
20260506062103 7 79 0.0 3.2 0.28 3.20 0.48 97 1008.2
20260506062003 7 79 0.0 3.2 0.25 3.17 0.46 97 1008.2
20260506061924 7 80 0.0 3.2 0.25 3.17 0.46 97 1008.2
20260506061703 7 83 0.0 3.2 0.25 3.17 0.46 97 1008.1
20260506061103 7 93 0.0 4.8 0.23 3.15 0.43 97 1008.1
20260506060903 7 93 0.0 4.8 0.25 3.15 0.43 97 1008.1
20260506060703 7 94 0.0 4.8 0.23 3.12 0.41 97 1008.1
20260506060603 7 95 0.0 4.8 0.23 3.12 0.41 97 1008.0
20260506060403 7 83 0.0 4.8 0.20 3.10 0.38 97 1008.1
20260506060224 7 79 0.0 3.2 0.20 3.10 0.38 97 1008.0
20260506051203 7 67 1.6 4.8 0.15 2.92 0.20 98 1008.5
20260506051103 7 65 1.6 4.8 0.15 2.92 0.20 98 1008.7
20260506051003 7 64 1.6 4.8 0.13 2.90 0.18 98 1008.7
20260506050903 7 63 1.6 4.8 0.13 2.90 0.18 98 1008.7
20260506050803 7 68 1.6 4.8 0.15 2.90 0.18 98 1008.7
20260506050503 7 80 1.6 3.2 0.15 2.90 0.18 98 1008.7
20260506050403 7 70 1.6 4.8 0.15 2.90 0.18 98 1008.8
20260506050203 7 72 1.6 4.8 0.18 2.90 0.18 98 1008.7
20260506045103 8 58 1.6 6.4 0.18 2.87 0.15 98 1009.0
20260506045003 8 59 1.6 6.4 0.18 2.87 0.15 98 1008.8
20260506044903 8 58 1.6 6.4 0.18 2.87 0.15 98 1008.8
20260506044803 8 57 3.2 11.3 0.20 2.87 0.15 98 1008.9
20260506044703 8 49 3.2 11.3 0.20 2.87 0.15 98 1008.9
20260506044603 8 50 3.2 11.3 0.20 2.87 0.15 98 1008.8
20260506044503 8 49 3.2 11.3 0.20 2.87 0.15 98 1008.9
20260506044403 8 52 3.2 11.3 0.20 2.87 0.15 98 1008.8
20260506044303 8 56 3.2 11.3 0.20 2.87 0.15 98 1008.7
20260506044103 8 66 3.2 11.3 0.20 2.84 0.13 98 1008.7
20260506043703 8 66 1.6 11.3 0.20 2.84 0.13 98 1008.9
20260506043624 8 65 1.6 11.3 0.20 2.84 0.13 98 1008.9
20260506043503 8 63 1.6 11.3 0.23 2.84 0.13 98 1008.7
20260506043303 8 46 1.6 11.3 0.23 2.84 0.13 98 1008.7
20260506043203 8 41 1.6 11.3 0.23 2.84 0.13 98 1008.7
20260506043103 8 31 3.2 11.3 0.20 2.82 0.10 98 1008.8
20260506042902 8 37 3.2 9.7 0.20 2.82 0.10 98 1009.0
20260506042603 8 38 3.2 9.7 0.23 2.82 0.10 98 1008.8
20260506042403 8 40 3.2 9.7 0.23 2.82 0.10 98 1008.9
20260506042003 8 53 1.6 6.4 0.23 2.79 0.08 98 1008.9
20260506041802 8 65 1.6 4.8 0.23 2.79 0.08 98 1009.1
20260506041624 8 73 1.6 4.8 0.23 2.79 0.08 98 1008.9
20260506041302 8 81 1.6 6.4 0.25 2.79 0.08 98 1009.1
20260506041103 8 84 1.6 6.4 0.23 2.77 0.05 98 1009.0
20260506040903 8 89 1.6 6.4 0.23 2.77 0.05 98 1009.1
20260506040703 8 89 1.6 6.4 0.23 2.74 0.03 98 1009.2
20260506040624 8 92 1.6 6.4 0.23 2.74 0.03 98 1009.1
20260506040502 8 91 1.6 6.4 0.23 2.74 0.03 98 1009.2
20260506040424 8 93 0.0 6.4 0.23 2.74 0.03 98 1009.2
20260506035924 8 93 1.6 3.2 0.23 2.72 2.72 98 1009.2
20260506035703 8 89 1.6 3.2 0.25 2.72 2.72 98 1009.3
20260506035603 8 85 1.6 3.2 0.23 2.69 2.69 98 1009.3
20260506035503 8 79 1.6 4.8 0.23 2.69 2.69 98 1009.3
20260506035103 8 78 1.6 4.8 0.25 2.69 2.69 98 1009.3
20260506035003 8 77 1.6 4.8 0.25 2.69 2.69 98 1009.3
20260506034802 8 74 1.6 4.8 0.25 2.67 2.67 98 1009.3
20260506034603 8 80 1.6 4.8 0.25 2.67 2.67 98 1009.4
20260506034503 8 76 1.6 9.7 0.28 2.67 2.67 98 1009.4
20260506034103 8 67 1.6 9.7 0.28 2.64 2.64 98 1009.3
20260506033803 8 63 1.6 9.7 0.30 2.64 2.64 98 1009.2
20260506033603 8 58 1.6 9.7 0.30 2.64 2.64 98 1009.3
20260506033502 8 57 1.6 9.7 0.28 2.62 2.62 98 1009.2
20260506033303 8 57 1.6 4.8 0.30 2.62 2.62 98 1009.4
20260506033103 8 63 1.6 4.8 0.30 2.62 2.62 98 1009.4
20260506032803 8 73 1.6 4.8 0.33 2.62 2.62 98 1009.2
20260506032603 8 72 1.6 4.8 0.33 2.59 2.59 98 1009.3
20260506032403 8 84 1.6 4.8 0.36 2.59 2.59 98 1009.5
20260506032305 8 84 1.6 4.8 0.36 2.59 2.59 98 1009.5
20260506032124 8 81 1.6 4.8 0.33 2.57 2.59 98 1009.4
20260506032003 9 73 0.0 4.8 0.36 2.57 2.57 98 1009.4
20260506031803 9 66 0.0 4.8 0.36 2.57 2.57 98 1009.3
20260506031603 9 0 0.0 0.0 0.38 2.57 2.57 98 1009.5
20260506031503 9 0 0.0 0.0 0.38 2.57 2.57 98 1009.6
20260506031403 9 0 0.0 0.0 0.38 2.57 2.57 98 1009.6
20260506031303 9 0 0.0 0.0 0.36 2.54 2.54 98 1009.7
20260506031102 9 0 0.0 0.0 0.38 2.54 2.54 98 1009.6
20260506030903 9 0 0.0 0.0 0.38 2.54 2.54 98 1009.5
20260506030403 9 0 0.0 0.0 0.38 2.51 2.51 98 1009.7
20260506030303 9 0 0.0 0.0 0.38 2.49 2.49 98 1009.8
20260506025903 9 0 0.0 0.0 0.41 2.49 2.49 98 1009.6
20260506025703 9 0 0.0 0.0 0.38 2.46 2.46 98 1009.7
20260506025602 9 0 0.0 0.0 0.41 2.46 2.46 97 1009.7
20260506025403 9 0 0.0 0.0 0.38 2.44 2.44 97 1009.5
20260506025103 9 0 0.0 0.0 0.41 2.44 2.44 97 1009.4
20260506025003 9 0 0.0 0.0 0.43 2.44 2.44 97 1009.6
20260506024903 9 0 0.0 0.0 0.41 2.41 2.41 97 1009.4
20260506024702 9 0 0.0 0.0 0.43 2.41 2.41 97 1009.3
20260506024603 9 0 0.0 0.0 0.43 2.41 2.41 97 1009.5
20260506024103 9 0 0.0 0.0 0.43 2.36 2.36 97 1009.2
20260506024003 9 0 0.0 0.0 0.43 2.36 2.36 97 1009.2
20260506023503 9 0 0.0 0.0 0.46 2.34 2.34 97 1009.1
20260506023303 9 0 0.0 0.0 0.43 2.31 2.31 97 1009.1
20260506023103 9 0 0.0 0.0 0.46 2.31 2.31 97 1009.1
20260506022903 9 0 0.0 0.0 0.43 2.29 2.29 97 1009.2
20260506022603 9 0 0.0 0.0 0.43 2.26 2.26 97 1009.1
20260506022305 9 0 0.0 0.0 0.43 2.24 2.24 97 1009.1
20260506022124 9 91 0.0 1.6 0.46 2.24 2.24 97 1009.0
20260506021803 9 91 0.0 1.6 0.46 2.21 2.21 97 1009.0
20260506021603 9 91 0.0 1.6 0.43 2.18 2.18 97 1009.0
20260506021503 9 91 0.0 1.6 0.46 2.18 2.18 97 1009.0
20260506021403 9 91 0.0 1.6 0.46 2.18 2.18 97 1009.0
20260506021103 9 0 0.0 0.0 0.46 2.16 2.16 97 1008.9
20260506020803 9 0 0.0 0.0 0.48 2.16 2.16 97 1008.8
20260506020624 9 91 0.0 1.6 0.46 2.13 2.13 97 1008.7
20260506020503 9 85 0.0 1.6 0.46 2.13 2.13 97 1008.9
20260506020403 9 85 0.0 1.6 0.46 2.13 2.13 97 1008.9
20260506020024 9 88 0.0 1.6 0.43 2.08 2.11 97 1008.9
20260506015903 9 89 0.0 1.6 0.46 2.08 2.08 97 1008.9
20260506015503 9 99 0.0 1.6 0.46 2.06 2.06 97 1009.1
20260506015224 9 96 0.0 1.6 0.46 2.03 2.03 97 1009.1
20260506015103 9 93 0.0 1.6 0.46 2.03 2.03 97 1009.1
20260506014924 9 92 0.0 1.6 0.46 2.01 2.01 97 1008.9
20260506014703 9 92 0.0 1.6 0.43 1.98 1.98 97 1008.8
20260506014603 9 92 0.0 1.6 0.43 1.98 1.98 97 1008.9
20260506014403 9 101 0.0 1.6 0.41 1.96 1.96 97 1009.0
20260506014303 9 95 0.0 1.6 0.41 1.96 1.96 97 1008.8
20260506014124 9 95 0.0 1.6 0.38 1.93 1.93 97 1009.0
20260506013903 9 96 0.0 1.6 0.41 1.93 1.93 97 1009.1
20260506013603 9 91 0.0 1.6 0.38 1.91 1.91 97 1009.1
20260506013403 9 83 0.0 1.6 0.36 1.88 1.88 97 1008.9
20260506013124 9 90 0.0 1.6 0.33 1.85 1.85 97 1008.9
20260506012803 9 84 0.0 3.2 0.33 1.85 1.85 97 1008.8
20260506012703 9 92 0.0 3.2 0.30 1.83 1.83 97 1009.0
20260506012603 9 104 1.6 3.2 0.30 1.83 1.83 97 1008.8
20260506012403 9 117 1.6 3.2 0.30 1.83 1.83 97 1008.8
20260506012307 9 116 1.6 3.2 0.28 1.80 1.80 97 1008.9
20260506012102 9 108 1.6 4.8 0.25 1.78 1.78 97 1008.7
20260506012003 9 94 1.6 4.8 0.25 1.78 1.78 97 1008.8
20260506011824 9 187 3.2 6.4 0.23 1.75 1.75 97 1009.0
20260506011703 9 250 3.2 6.4 0.23 1.75 1.75 97 1009.1
20260506011603 9 258 3.2 6.4 0.23 1.75 1.75 97 1008.8
20260506011503 9 258 1.6 6.4 0.20 1.73 1.73 97 1008.8
20260506011403 9 260 3.2 6.4 0.20 1.73 1.73 97 1008.6
20260506011303 9 266 3.2 6.4 0.20 1.73 1.73 97 1008.3
20260506011103 9 257 3.2 6.4 0.18 1.70 1.70 97 1008.8
20260506011003 9 244 3.2 6.4 0.18 1.70 1.70 97 1009.1
20260506010903 9 200 1.6 6.4 0.15 1.68 1.68 97 1008.9
20260506010603 9 96 1.6 4.8 0.15 1.68 1.68 97 1008.5
20260506010403 9 91 1.6 4.8 0.15 1.68 1.68 97 1008.9
20260506010303 9 92 1.6 4.8 0.15 1.68 1.68 97 1008.7
20260506010203 9 89 0.0 3.2 0.13 1.65 1.65 97 1008.8
20260506005903 9 85 0.0 1.6 0.10 1.63 1.63 97 1008.5
20260506005803 9 82 0.0 1.6 0.10 1.63 1.63 97 1008.5
20260506005403 9 0 0.0 0.0 0.10 1.60 1.60 97 1008.6
20260506005124 9 0 0.0 0.0 0.08 1.57 1.57 97 1008.6
20260506005003 9 0 0.0 0.0 0.10 1.57 1.57 97 1008.5
20260506004803 9 0 0.0 0.0 0.08 1.55 1.55 97 1008.5
20260506004103 9 0 0.0 0.0 0.13 1.55 1.55 97 1008.3
20260506004024 9 0 0.0 0.0 0.13 1.55 1.55 97 1008.5
20260506003724 9 0 0.0 0.0 0.10 1.52 1.52 97 1008.3
20260506003603 9 0 0.0 0.0 0.13 1.52 1.52 97 1008.7
20260506003303 9 0 0.0 0.0 0.13 1.52 1.52 97 1008.5
20260506003203 9 0 0.0 0.0 0.13 1.52 1.52 97 1008.5
20260506003103 9 0 0.0 0.0 0.15 1.52 1.52 97 1008.5
20260506002903 9 0 0.0 0.0 0.15 1.52 1.52 97 1008.5
20260506002803 8 0 0.0 0.0 0.15 1.52 1.52 97 1008.5
20260506002624 8 0 0.0 0.0 0.18 1.52 1.52 97 1008.5
20260506002403 8 0 0.0 0.0 0.18 1.52 1.52 97 1008.5
20260506001803 8 95 0.0 1.6 0.23 1.52 1.52 97 1008.5
20260506001503 8 90 0.0 3.2 0.25 1.52 1.52 97 1008.5
20260506001403 8 90 0.0 3.2 0.25 1.52 1.52 97 1008.5
20260506000824 8 82 0.0 3.2 0.33 1.52 1.52 97 1008.3
20260506000703 8 82 0.0 3.2 0.36 1.52 1.52 96 1008.2
20260506000603 8 73 0.0 3.2 0.41 1.52 1.52 96 1008.5
20260506000303 9 101 0.0 1.6 0.51 1.52 1.52 97 1008.3
20260506000124 8 101 0.0 1.6 0.53 1.52 1.52 97 1008.5
20260506000003 8 104 0.0 1.6 0.56 1.52 1.52 96 1008.2
20260505235724 8 100 0.0 1.6 0.58 1.52 1.52 96 1008.3
20260505235603 8 100 0.0 1.6 0.56 1.50 1.50 96 1008.6
20260505235503 8 101 0.0 1.6 0.56 1.50 1.50 96 1008.5
20260505235305 8 59 0.0 6.4 0.56 1.50 1.50 96 1008.5
20260505235103 8 50 1.6 6.4 0.58 1.50 1.50 96 1008.7
20260505235003 8 56 1.6 6.4 0.56 1.47 1.47 96 1008.5
20260505234624 8 48 1.6 6.4 0.56 1.47 1.47 96 1008.6
20260505234403 8 45 1.6 6.4 0.53 1.45 1.45 96 1008.7
20260505234303 8 52 1.6 6.4 0.56 1.45 1.45 96 1008.7
20260505233503 8 68 1.6 4.8 0.51 1.40 1.40 96 1008.7
20260505233203 8 64 1.6 4.8 0.51 1.40 1.40 96 1008.8
20260505233103 8 69 1.6 9.7 0.48 1.37 1.37 96 1008.6
20260505232924 8 61 1.6 9.7 0.48 1.37 1.37 96 1008.5
20260505232603 8 62 1.6 9.7 0.48 1.35 1.35 96 1008.9
20260505232524 8 62 1.6 9.7 0.48 1.35 1.35 96 1008.3
20260505231903 8 44 3.2 9.7 0.46 1.30 1.30 96 1008.9
20260505231003 9 15 4.8 11.3 0.41 1.22 1.24 96 1008.8
20260505230803 9 11 4.8 12.9 0.38 1.19 1.19 96 1008.9
20260505230603 9 12 4.8 12.9 0.30 1.12 1.12 96 1009.0
20260505230124 9 19 4.8 12.9 0.18 0.99 0.99 96 1008.8
20260505230024 9 22 4.8 12.9 0.15 0.97 0.99 96 1008.9
20260505225903 9 23 4.8 11.3 0.15 0.97 0.97 96 1008.7
20260505225703 9 40 3.2 11.3 0.13 0.94 0.94 96 1008.6
20260505225403 9 49 3.2 11.3 0.15 0.94 0.94 96 1008.5
20260505225103 9 34 3.2 11.3 0.15 0.91 0.91 96 1008.6
20260505225024 10 38 3.2 11.3 0.15 0.91 0.91 96 1008.5
20260505224903 10 39 3.2 11.3 0.15 0.91 0.91 96 1008.2
20260505224803 10 41 3.2 11.3 0.15 0.91 0.91 96 1008.6
20260505224103 10 44 3.2 11.3 0.15 0.89 0.89 96 1008.3
20260505224003 10 42 3.2 11.3 0.15 0.89 0.89 96 1008.5
20260505223903 10 48 3.2 11.3 0.18 0.89 0.89 96 1008.5
20260505223703 10 49 3.2 11.3 0.18 0.89 0.89 96 1008.3
20260505223503 10 56 3.2 11.3 0.18 0.89 0.89 96 1008.7
20260505222603 10 30 3.2 9.7 0.23 0.86 0.86 96 1008.7
20260505222503 10 30 3.2 9.7 0.23 0.86 0.86 96 1008.5
20260505222424 10 31 3.2 9.7 0.23 0.86 0.86 96 1008.6
20260505222203 10 38 3.2 6.4 0.20 0.84 0.84 95 1008.6
20260505222103 10 46 3.2 6.4 0.20 0.84 0.84 96 1008.5
20260505221803 10 55 1.6 6.4 0.23 0.84 0.84 95 1008.5
20260505221603 10 63 1.6 4.8 0.23 0.84 0.84 95 1008.5
20260505221103 10 87 1.6 6.4 0.46 0.81 0.81 95 1008.3
20260505220903 10 86 1.6 6.4 0.48 0.81 0.81 95 1008.6
20260505220603 10 68 1.6 6.4 0.58 0.81 0.81 95 1008.6
20260505220403 10 66 1.6 6.4 0.61 0.81 0.81 95 1008.2
20260505220303 10 64 1.6 6.4 0.61 0.81 0.81 95 1008.5
20260505215824 10 47 3.2 6.4 0.64 0.84 0.81 95 1008.5
20260505215603 10 62 1.6 6.4 0.64 0.84 0.81 95 1008.5
20260505215503 10 62 3.2 6.4 0.61 0.81 0.79 95 1008.3
20260505215305 10 63 3.2 9.7 0.58 0.79 0.76 95 1008.3
20260505215103 10 48 3.2 12.9 0.58 0.79 0.76 95 1008.5
20260505215003 10 36 4.8 16.1 0.58 0.79 0.76 95 1008.3
20260505214924 10 40 4.8 16.1 0.58 0.79 0.76 95 1008.5
20260505214603 11 22 4.8 16.1 0.58 0.76 0.74 95 1008.6
20260505214303 11 21 6.4 17.7 0.58 0.76 0.74 95 1008.2
20260505214103 11 17 6.4 17.7 0.58 0.76 0.74 95 1008.3
20260505214003 11 17 6.4 17.7 0.58 0.76 0.74 95 1008.5
20260505213803 11 6 6.4 17.7 0.58 0.74 0.71 95 1008.3
20260505213603 11 7 6.4 17.7 0.58 0.74 0.71 95 1008.2
20260505213403 12 358 6.4 12.9 0.58 0.71 0.69 95 1008.2
20260505213203 12 2 4.8 12.9 0.58 0.71 0.69 95 1008.1
20260505212903 13 23 3.2 12.9 0.61 0.71 0.69 94 1008.1
20260505212703 13 43 1.6 11.3 0.58 0.69 0.66 95 1008.1
20260505212624 13 42 1.6 6.4 0.56 0.66 0.66 95 1008.1
20260505212403 13 100 0.0 4.8 0.58 0.66 0.64 94 1008.1
20260505212305 13 102 0.0 4.8 0.58 0.66 0.64 94 1008.0
20260505212103 13 218 0.0 4.8 0.58 0.66 0.64 94 1007.8
20260505211803 13 236 1.6 6.4 0.56 0.64 0.61 94 1007.7
20260505211624 13 228 1.6 6.4 0.56 0.64 0.61 94 1008.0
20260505211403 13 223 1.6 6.4 0.48 0.56 0.56 94 1008.1
20260505211203 13 198 1.6 6.4 0.33 0.41 0.38 94 1008.6
20260505211103 13 159 1.6 6.4 0.30 0.38 0.36 94 1008.6
20260505211003 13 111 1.6 4.8 0.30 0.38 0.36 94 1008.2
20260505210903 13 102 1.6 3.2 0.28 0.36 0.33 94 1008.1
20260505210524 13 104 1.6 3.2 0.18 0.25 0.23 94 1008.0
20260505210203 13 96 0.0 3.2 0.13 0.20 0.18 93 1007.8
20260505205924 13 106 0.0 1.6 0.13 0.20 0.18 93 1007.9
20260505205803 13 103 0.0 1.6 0.13 0.20 0.18 93 1007.9
20260505205624 13 91 0.0 1.6 0.13 0.20 0.18 93 1007.8
20260505205305 13 89 0.0 1.6 0.13 0.20 0.18 93 1007.9
20260505205124 13 91 0.0 1.6 0.13 0.20 0.18 93 1007.7
20260505205003 13 91 0.0 1.6 0.13 0.20 0.18 93 1007.7
20260505204903 13 91 0.0 1.6 0.15 0.20 0.18 93 1007.8
20260505204803 13 98 0.0 1.6 0.15 0.20 0.18 93 1007.7
20260505204703 13 100 0.0 3.2 0.15 0.20 0.18 93 1007.7
20260505204603 13 86 0.0 4.8 0.13 0.18 0.15 92 1007.8
20260505204403 13 71 0.0 4.8 0.13 0.18 0.15 92 1007.8
20260505204124 13 72 1.6 4.8 0.13 0.18 0.15 92 1007.8
20260505203903 13 76 1.6 4.8 0.13 0.18 0.15 92 1007.7
20260505203203 13 59 3.2 6.4 0.08 0.13 0.10 91 1008.1
20260505203103 13 59 3.2 6.4 0.08 0.13 0.10 91 1008.2
20260505203003 13 52 3.2 6.4 0.05 0.10 0.08 91 1008.0
20260505202603 13 55 3.2 9.7 0.05 0.10 0.08 91 1007.8
20260505202403 13 47 3.2 9.7 0.03 0.08 0.05 90 1007.9
20260505202306 14 55 3.2 9.7 0.03 0.08 0.05 90 1007.8
20260505202103 14 53 3.2 9.7 0.03 0.08 0.05 90 1007.9
20260505202003 14 55 3.2 9.7 0.03 0.08 0.05 90 1007.8
20260505201903 14 55 3.2 9.7 0.03 0.08 0.05 90 1007.9
20260505201703 14 55 3.2 9.7 0.03 0.08 0.05 89 1007.9
20260505201603 14 63 1.6 9.7 0.03 0.08 0.05 89 1007.8
20260505201503 14 67 1.6 9.7 0.03 0.08 0.05 89 1007.6
20260505201403 14 71 1.6 4.8 0.03 0.08 0.05 89 1007.8
20260505201303 14 70 1.6 4.8 0.03 0.08 0.05 89 1007.8
20260505201203 14 67 1.6 4.8 0.03 0.08 0.05 89 1007.7
20260505201103 15 75 3.2 6.4 0.03 0.08 0.05 89 1007.8
20260505201003 15 75 3.2 6.4 0.05 0.08 0.05 88 1007.8
20260505200924 15 71 3.2 6.4 0.05 0.08 0.05 88 1007.7
20260505200624 15 54 3.2 6.4 0.05 0.08 0.05 88 1007.7
20260505200503 15 47 3.2 9.7 0.05 0.08 0.05 87 1007.8
20260505200403 15 49 3.2 9.7 0.05 0.08 0.05 87 1007.8
20260505195924 15 39 3.2 9.7 0.05 0.08 0.05 85 1007.7
20260505195803 15 48 3.2 9.7 0.05 0.08 0.05 85 1007.9
20260505195703 15 52 3.2 9.7 0.05 0.08 0.05 85 1007.6
20260505195603 16 58 3.2 9.7 0.05 0.08 0.05 85 1007.8
20260505195403 16 83 3.2 4.8 0.05 0.08 0.05 84 1007.8
20260505195103 16 68 3.2 4.8 0.05 0.08 0.05 84 1007.8
20260505194824 16 56 1.6 4.8 0.03 0.05 0.03 83 1007.7
20260505194603 16 51 1.6 4.8 0.03 0.05 0.03 83 1007.8
20260505194103 16 66 1.6 4.8 0.03 0.05 0.03 83 1007.9
20260505193703 16 91 1.6 4.8 0.03 0.05 0.03 82 1007.7
20260505193603 16 93 1.6 4.8 0.03 0.05 0.03 82 1007.8
20260505193503 16 101 1.6 3.2 0.03 0.05 0.03 82 1007.7
20260505193203 16 113 0.0 3.2 0.03 0.05 0.03 82 1007.7
20260505192903 16 153 1.6 6.4 0.03 0.05 0.03 82 1007.9
20260505192703 16 183 1.6 6.4 0.03 0.05 0.03 81 1007.8
20260505192624 16 193 1.6 6.4 0.03 0.05 0.03 81 1007.7
20260505192503 16 198 1.6 6.4 0.03 0.05 0.03 81 1007.7
20260505192103 16 218 3.2 6.4 0.03 0.05 0.03 79 1007.8
20260505192003 16 226 3.2 9.7 0.03 0.05 0.03 80 1007.9
20260505191903 16 219 3.2 9.7 0.03 0.05 0.03 80 1007.9
20260505191603 16 218 3.2 9.7 0.03 0.05 0.03 79 1007.8
20260505191503 16 220 3.2 9.7 0.03 0.05 0.03 80 1007.9
20260505191103 16 213 3.2 9.7 0.03 0.05 0.03 78 1008.0
20260505190803 16 212 3.2 9.7 0.00 0.03 0.00 79 1008.1
20260505190503 16 213 3.2 11.3 0.00 0.03 0.00 77 1007.9
20260505190403 17 221 3.2 12.9 0.00 0.03 0.00 77 1007.8
20260505190203 17 221 4.8 12.9 0.00 0.03 0.00 77 1008.2
20260505185924 17 217 4.8 14.5 0.00 0.03 0.00 76 1008.0
20260505185324 17 194 4.8 14.5 0.00 0.03 0.00 72 1008.0
20260505185103 18 207 6.4 17.7 0.00 0.03 0.00 70 1008.0
20260505184824 18 221 6.4 17.7 0.00 0.03 0.00 70 1008.0
20260505184524 18 229 6.4 17.7 0.00 0.03 0.00 69 1008.1
20260505184424 18 234 8.0 17.7 0.00 0.03 0.00 68 1007.9
20260505184203 18 239 6.4 17.7 0.00 0.03 0.00 68 1008.1
20260505184103 18 235 6.4 16.1 0.00 0.03 0.00 68 1008.1
20260505183903 18 230 8.0 17.7 0.00 0.03 0.00 68 1008.1
20260505183724 18 227 8.0 17.7 0.00 0.03 0.00 68 1008.1
20260505183503 18 227 8.0 17.7 0.00 0.03 0.00 67 1008.2
20260505183403 18 228 8.0 17.7 0.00 0.03 0.00 68 1008.2
20260505183303 18 227 8.0 22.5 0.00 0.03 0.00 67 1008.1
20260505183103 18 231 8.0 22.5 0.00 0.03 0.00 67 1008.2
20260505183024 18 237 8.0 22.5 0.00 0.03 0.00 67 1008.0
20260505182903 18 241 8.0 22.5 0.00 0.03 0.00 67 1008.1
20260505182824 18 247 8.0 22.5 0.00 0.03 0.00 67 1008.2
20260505182603 18 252 6.4 22.5 0.00 0.03 0.00 67 1008.1
20260505182424 18 256 6.4 22.5 0.00 0.03 0.00 67 1008.1
20260505182103 18 246 6.4 14.5 0.00 0.03 0.00 67 1008.0
20260505182003 18 245 6.4 14.5 0.00 0.03 0.00 67 1008.0
20260505181803 18 236 6.4 16.1 0.00 0.03 0.00 67 1008.1
20260505181603 18 232 6.4 16.1 0.00 0.03 0.00 67 1008.0
20260505181303 18 216 6.4 20.9 0.00 0.03 0.00 67 1008.1
20260505181203 18 228 8.0 20.9 0.00 0.03 0.00 67 1008.1
20260505181103 18 233 8.0 20.9 0.00 0.03 0.00 67 1008.1
20260505181003 18 230 8.0 20.9 0.00 0.03 0.00 67 1008.1
20260505180903 18 220 8.0 20.9 0.00 0.03 0.00 67 1008.1
20260505180824 18 226 8.0 20.9 0.00 0.03 0.00 67 1007.9
20260505180703 18 231 8.0 20.9 0.00 0.03 0.00 67 1008.0
20260505180603 18 226 8.0 20.9 0.00 0.03 0.00 66 1007.9
20260505180403 18 219 8.0 20.9 0.00 0.03 0.00 66 1007.9
20260505180203 18 218 8.0 20.9 0.00 0.03 0.00 66 1008.0
20260505175903 18 217 8.0 20.9 0.00 0.03 0.00 65 1008.0
20260505175703 18 212 8.0 20.9 0.00 0.03 0.00 65 1007.9
20260505175603 18 207 8.0 20.9 0.00 0.03 0.00 65 1007.7
20260505175403 18 204 8.0 17.7 0.00 0.03 0.00 65 1008.0
20260505175305 18 212 6.4 17.7 0.00 0.03 0.00 65 1007.8
20260505174903 18 203 4.8 12.9 0.00 0.03 0.00 64 1007.8
20260505174603 19 220 6.4 12.9 0.00 0.03 0.00 64 1007.8
20260505174424 19 229 4.8 12.9 0.00 0.03 0.00 64 1007.9
20260505174103 18 238 6.4 12.9 0.00 0.03 0.00 65 1007.7
20260505173903 18 227 6.4 12.9 0.00 0.03 0.00 65 1007.6
20260505173603 18 233 6.4 14.5 0.00 0.03 0.00 65 1007.7
20260505173403 18 234 6.4 14.5 0.00 0.03 0.00 66 1007.9
20260505173124 18 235 6.4 16.1 0.00 0.03 0.00 65 1007.7
20260505172903 18 253 8.0 25.7 0.00 0.03 0.00 65 1007.9
20260505172824 18 256 8.0 25.7 0.00 0.03 0.00 65 1007.8
20260505172403 18 259 9.7 25.7 0.00 0.03 0.00 65 1007.7
20260505172103 18 262 9.7 25.7 0.00 0.03 0.00 65 1007.8
20260505172003 18 263 9.7 17.7 0.00 0.03 0.00 65 1007.7
20260505171903 18 257 9.7 17.7 0.00 0.03 0.00 66 1007.7
20260505171603 18 250 8.0 17.7 0.00 0.03 0.00 65 1007.7
20260505171503 18 251 8.0 20.9 0.00 0.03 0.00 65 1007.9
20260505171103 18 254 6.4 20.9 0.00 0.03 0.00 64 1007.6
20260505170903 18 240 6.4 20.9 0.00 0.03 0.00 64 1007.6
20260505170703 18 235 6.4 20.9 0.00 0.03 0.00 64 1007.6
20260505170403 18 240 8.0 17.7 0.00 0.03 0.00 64 1007.7
20260505170203 18 236 8.0 17.7 0.00 0.03 0.00 63 1007.7
20260505170024 19 232 8.0 17.7 0.00 0.03 0.00 64 1007.6
20260505165803 19 237 8.0 17.7 0.00 0.03 0.00 63 1007.8
20260505165503 19 226 8.0 17.7 0.00 0.03 0.00 63 1007.6
20260505165203 19 221 8.0 20.9 0.00 0.03 0.00 63 1007.6
20260505164903 19 229 8.0 20.9 0.00 0.03 0.00 62 1007.6
20260505164824 19 224 8.0 20.9 0.00 0.03 0.00 63 1007.6
20260505164703 19 223 8.0 20.9 0.00 0.03 0.00 63 1007.7
20260505164603 19 227 8.0 20.9 0.00 0.03 0.00 62 1007.5
20260505164303 19 235 9.7 27.4 0.00 0.03 0.00 62 1007.8
20260505164103 19 229 9.7 27.4 0.00 0.03 0.00 62 1007.6
20260505163903 19 225 9.7 27.4 0.00 0.03 0.00 62 1007.6
20260505163703 19 232 11.3 27.4 0.00 0.03 0.00 61 1007.6
20260505163603 19 234 11.3 27.4 0.00 0.03 0.00 61 1007.6
20260505163303 20 237 8.0 27.4 0.00 0.03 0.00 60 1007.6
20260505163203 20 238 9.7 27.4 0.00 0.03 0.00 60 1007.7
20260505162803 20 245 8.0 25.7 0.00 0.03 0.00 60 1007.4
20260505162603 20 235 8.0 25.7 0.00 0.03 0.00 60 1007.6
20260505162424 20 233 9.7 25.7 0.00 0.03 0.00 60 1007.4
20260505162306 20 231 9.7 25.7 0.00 0.03 0.00 59 1007.3
20260505162203 20 224 8.0 25.7 0.00 0.03 0.00 59 1007.5
20260505162103 20 214 8.0 25.7 0.00 0.03 0.00 59 1007.4
20260505162003 20 207 8.0 24.1 0.00 0.03 0.00 59 1007.6
20260505161903 20 205 9.7 24.1 0.00 0.03 0.00 59 1007.3
20260505161803 20 208 9.7 24.1 0.00 0.03 0.00 59 1007.3
20260505161703 20 214 9.7 24.1 0.00 0.03 0.00 59 1007.3
20260505161624 20 215 9.7 24.1 0.00 0.03 0.00 58 1007.3
20260505161103 21 230 9.7 25.7 0.00 0.03 0.00 57 1007.5
20260505161003 21 235 9.7 25.7 0.00 0.03 0.00 58 1007.2
20260505160703 20 246 11.3 25.7 0.00 0.03 0.00 57 1007.2
20260505160503 20 251 9.7 25.7 0.00 0.03 0.00 57 1007.2
20260505160424 20 244 9.7 25.7 0.00 0.03 0.00 57 1007.1
20260505160303 20 234 9.7 20.9 0.00 0.03 0.00 58 1007.4
20260505153303 20 224 6.4 24.1 0.00 0.03 0.00 58 1006.6
20260505153224 20 227 8.0 24.1 0.00 0.03 0.00 58 1006.7
20260505152903 20 235 9.7 30.6 0.00 0.03 0.00 58 1006.7
20260505152703 20 242 9.7 30.6 0.00 0.03 0.00 58 1006.7
20260505152603 20 242 9.7 30.6 0.00 0.03 0.00 59 1006.7
20260505152503 20 246 11.3 30.6 0.00 0.03 0.00 59 1006.7
20260505152403 19 250 12.9 30.6 0.00 0.03 0.00 60 1006.6
20260505152324 19 250 12.9 30.6 0.00 0.03 0.00 61 1006.7
20260505152103 19 244 12.9 30.6 0.00 0.03 0.00 60 1006.8
20260505152003 19 237 11.3 29.0 0.00 0.03 0.00 61 1006.9
20260505151903 19 235 11.3 29.0 0.00 0.03 0.00 61 1006.8
20260505151703 19 230 11.3 29.0 0.00 0.03 0.00 60 1007.1
20260505151603 19 232 11.3 29.0 0.00 0.03 0.00 60 1007.0
20260505151424 20 224 9.7 25.7 0.00 0.03 0.00 60 1007.0
20260505151203 20 225 9.7 24.1 0.00 0.03 0.00 60 1006.8
20260505151103 19 223 9.7 24.1 0.00 0.03 0.00 60 1006.9
20260505151003 19 227 8.0 24.1 0.00 0.03 0.00 60 1006.8
20260505150603 19 229 8.0 20.9 0.00 0.03 0.00 62 1006.7
20260505150403 19 230 8.0 20.9 0.00 0.03 0.00 60 1006.9
20260505140603 18 186 8.0 25.7 0.00 0.03 0.00 67 1006.5
20260505140303 18 181 6.4 20.9 0.00 0.03 0.00 67 1006.5
20260505124903 16 196 4.8 14.5 0.00 0.03 0.00 73 1006.6
20260505124803 16 200 4.8 14.5 0.00 0.03 0.00 74 1006.8
20260505124703 16 199 4.8 14.5 0.00 0.03 0.00 73 1006.6
20260505124503 16 190 4.8 16.1 0.00 0.03 0.00 74 1006.6
20260505124303 16 180 4.8 16.1 0.00 0.03 0.00 73 1006.6
20260505124103 16 188 6.4 16.1 0.00 0.03 0.00 73 1006.5
20260505123903 16 186 6.4 16.1 0.00 0.03 0.00 73 1006.5
20260505123703 16 187 6.4 16.1 0.00 0.03 0.00 73 1006.4
20260505123303 16 196 6.4 16.1 0.00 0.03 0.00 73 1006.4
20260505123124 16 194 4.8 16.1 0.00 0.03 0.00 73 1006.3
20260505123003 16 198 4.8 16.1 0.00 0.03 0.00 73 1006.4
20260505122903 16 194 6.4 16.1 0.00 0.03 0.00 73 1006.4
20260505122703 16 186 6.4 25.7 0.00 0.03 0.00 72 1006.3
20260505122124 16 171 6.4 25.7 0.00 0.03 0.00 72 1006.5
20260505122003 16 166 6.4 25.7 0.00 0.03 0.00 72 1006.2
20260505121903 16 170 4.8 25.7 0.00 0.03 0.00 72 1006.3
20260505121803 16 165 6.4 25.7 0.00 0.03 0.00 72 1006.3
20260505121503 16 166 4.8 16.1 0.00 0.03 0.00 72 1006.2
20260505121403 16 168 4.8 16.1 0.00 0.03 0.00 72 1006.2
20260505121124 16 160 3.2 16.1 0.00 0.03 0.00 72 1006.1
20260505120903 16 166 4.8 16.1 0.00 0.03 0.00 72 1006.0
20260505120703 16 163 3.2 14.5 0.00 0.03 0.00 72 1006.3
20260505120624 16 165 3.2 14.5 0.00 0.03 0.00 72 1006.2
20260505120303 16 165 3.2 14.5 0.00 0.03 0.00 72 1005.9
20260505120103 16 166 4.8 14.5 0.00 0.03 0.00 71 1005.9
20260505115603 16 172 4.8 16.1 0.00 0.03 0.00 72 1005.6
20260505115324 16 180 6.4 16.1 0.00 0.03 0.00 72 1005.7
20260505115103 16 184 4.8 16.1 0.00 0.03 0.00 72 1005.8
20260505114024 16 197 6.4 24.1 0.00 0.03 0.00 75 1005.6
20260505113903 15 201 6.4 24.1 0.00 0.03 0.00 75 1005.9
20260505113724 15 206 6.4 24.1 0.00 0.03 0.00 76 1005.9
20260505113603 16 216 8.0 25.7 0.00 0.03 0.00 76 1005.8
20260505113003 16 207 8.0 25.7 0.00 0.03 0.00 74 1005.4
20260505112903 16 209 8.0 25.7 0.00 0.03 0.00 75 1005.7
20260505112503 16 204 6.4 17.7 0.00 0.03 0.00 71 1005.6
20260505112304 17 203 6.4 17.7 0.00 0.03 0.00 70 1005.4
20260505112203 17 202 6.4 17.7 0.00 0.03 0.00 70 1005.4
20260505112103 17 193 6.4 17.7 0.00 0.03 0.00 69 1005.4
20260505111703 17 182 6.4 14.5 0.00 0.03 0.00 67 1005.4
20260505111524 17 183 6.4 14.5 0.00 0.03 0.00 66 1005.6
20260505111403 17 180 6.4 14.5 0.00 0.03 0.00 66 1005.5
20260505111303 17 183 6.4 14.5 0.00 0.03 0.00 65 1005.6
20260505111103 17 192 6.4 17.7 0.00 0.03 0.00 64 1005.6
20260505110503 17 191 6.4 17.7 0.00 0.03 0.00 64 1005.5
20260505110324 17 199 6.4 17.7 0.00 0.03 0.00 65 1005.4
20260505110203 17 195 6.4 17.7 0.00 0.03 0.00 65 1005.5